Location: Enikep?du
(16.5133°N, 80.7066°E)
Time: 10:48:06
(UTC+00:00)

Cosmos 2251 Rocket - Pass Details

Date: 15 May 2026
Orbit: 760 x 788 km, 74.0° (Epoch: 5 June)

Event Time Altitude Azimuth Distance (km) Brightness Sun altitude
Rises 13:24:31 0° 353° (N) 3,271 7.2 -6.2°
Reaches altitude 10° 13:26:57 10° 357° (N) 2,341 6.4 -6.7°
Maximum altitude 13:32:10 56° 76° (ENE) 922 3.7 -7.9°
Drops below altitude 10° 13:37:21 10° 154° (SSE) 2,324 5.6 -9.0°
Enters shadow 13:39:24 - 158° (SSE) 3,105 6.2 -9.5°
